Regional Weather Roundup
Issued by NWS

Home | Current Version | Previous Version | Text Only | Print | Product List | Glossary On
Versions: 1 2 3 4 5 6 7 8 9 10 11 12 13 14 15 16 17 18 19 20 21 22 23 24 25 26 27 28 29 30 31 32 33 34 35 36 37 38 39 40 41 42 43 44 45 46 47 48 49 50
000
ASUS43 KFSD 290810
RWRSD

WEATHER ROUNDUP FOR SOUTH DAKOTA
NATIONAL WEATHER SERVICE SIOUX FALLS SD
300 AM CDT FRI AUG 29 2014

NOTE: "FAIR" INDICATES FEW OR NO CLOUDS BELOW 12,000 FEET WITH NO
SIGNIFICANT WEATHER AND/OR OBSTRUCTIONS TO VISIBILITY.


SDZ001>005-009-010-012>017-290900-
NORTHWEST AND NORTH CENTRAL SOUTH DAKOTA

CITY           SKY/WX    TMP DP  RH WIND       PRES   REMARKS
BUFFALO          N/A     64  53  67 W7        29.79F
FAITH            N/A     61  60  97 S10       29.84F
MOBRIDGE       CLOUDY    65  65 100 S6        29.79F
$$

SDZ012>016-024>037-041>051-057-063-072>074-290900-
SOUTHWEST AND SOUTH CENTRAL SOUTH DAKOTA

CITY           SKY/WX    TMP DP  RH WIND       PRES   REMARKS
RAPID CTY ARPT CLEAR     55  53  93 NW6       29.89F
PIERRE         CLOUDY    65  65 100 NW5       29.81S FOG
CUSTER         CLEAR     49  45  86 NW3       30.04F
ELLSWORTH AFB  CLEAR     60  54  80 W6        29.88F
PHILIP         PTCLDY    58  57  97 W3        29.84F FOG
PINE RIDGE     CLEAR     50  50 100 CALM      29.92F
WINNER         CLOUDY    65  64  97 SW6       29.83F
$$

SDZ004>011-016>023-039-040-290900-
NORTHEAST SOUTH DAKOTA

CITY           SKY/WX    TMP DP  RH WIND       PRES   REMARKS
ABERDEEN       CLOUDY    65  65 100 N3        29.79F
WATERTOWN      CLOUDY    66  66 100 SE5       29.79S FOG
SISSETON         N/A     65  65 100 CALM      29.78F
$$

SDZ017-020-022-023-036>040-048>070-290900-
SOUTHEAST SOUTH DAKOTA

CITY           SKY/WX    TMP DP  RH WIND       PRES   REMARKS
SIOUX FALLS    CLOUDY    72  70  93 SW8       29.77F
HURON          CLOUDY    69  68  96 CALM      29.77F FOG
CHAMBERLAIN    CLOUDY    66  66  99 CALM      29.81F
MITCHELL       CLOUDY    71  70  96 CALM      29.77F FOG
YANKTON        CLOUDY    68  66  94 W6        29.78S
$$

ABBREVIATIONS USED IN REMARKS
   TC - TEMPERATURE IN CELSIUS
  WCI - WIND CHILL INDEX
   HX - HEAT INDEX
  VSB - VISIBILITY



USA.gov is the U.S. government's official web portal to all federal, state and local government web resources and services.